Meteo Giornale » Osservazioni meteo Italia » Treviso-S Angelo

ore: 23:20 - Osservazioni Meteo Treviso-S Angelo
Lat. 45° 39' N Lon. 12° 11' E Alt. 18 metri s.l.m.

sereno Europe/Rome

16 °C

Sereno

Temp. 24 Ore

11 °C

23 °C

Nord

5.5 Km/h

Dew point 12 °C

Umidità 77 %

Visibilità  10 Km

Il sole sorge alle ore 07:02

Il sole tramonta alle ore 19:02

Data e Ora Cielo e Fenomeni T °C DP °C Um. % Pres. hPa Vis. km Vento km/h
Oggi h: 23:20 sereno Sereno 16 12 77 1022 10 N 5.5
Oggi h: 22:50 poco_nuvoloso Poco Nuvoloso 17 11 67 1022 10 N/NE 7.4
Oggi h: 22:20 poco_nuvoloso Poco Nuvoloso 17 12 72 1022 10 N 7.4
Oggi h: 21:50 sereno Sereno 16 12 77 1022 10 N 7.4
Oggi h: 21:20 sereno Sereno 16 12 77 1022 10 N 3.7
Oggi h: 20:50 sereno Sereno 17 12 72 1022 10 N 5.5
Oggi h: 20:20 sereno Sereno 18 12 67 1021 10 N 7.4
Oggi h: 19:50 sereno Sereno 18 12 67 1021 10 N/NE 7.4
Oggi h: 19:20 sereno Sereno 19 11 59 1021 10 N 5.5
Oggi h: 18:50 sereno Sereno 20 11 56 1021 10 NE 11.1
Oggi h: 18:20 sereno Sereno 20 12 59 1020 10 E 11.1
Oggi h: 17:50 sereno Sereno 21 12 56 1020 10 E 16.7
Oggi h: 17:20 sereno Sereno 21 12 56 1020 10 E 18.5
Oggi h: 16:50 sereno Sereno 22 12 53 1020 10 E/NE 14.8
Oggi h: 16:20 sereno Sereno 22 12 53 1020 10 E/NE 16.7
Oggi h: 15:50 sereno Sereno 22 11 49 1020 10 E 16.7
Oggi h: 15:20 sereno Sereno 22 11 49 1020 10 E/NE 24
Oggi h: 14:50 poco_nuvoloso Poco Nuvoloso 23 12 49 1020 10 E/NE 11.1
Oggi h: 14:20 sereno Sereno 22 11 49 1020 10 E 13
Oggi h: 13:50 sereno Sereno 21 11 52 1021 10 NE 11.1
Oggi h: 13:20 sereno Sereno 22 11 49 1021 10 E/NE 13
Oggi h: 12:50 sereno Sereno 21 11 52 1021 10 N/NE 11.1
Oggi h: 12:20 sereno Sereno 20 11 56 1021 10 E 11.1
Oggi h: 11:50 sereno Sereno 20 11 56 1021 10 E/NE 13
Oggi h: 11:20 sereno Sereno 20 11 56 1021 10 E/NE 9.3
Oggi h: 10:50 sereno Sereno 19 10 55 1021 10 NE 9.3
Oggi h: 10:20 sereno Sereno 18 11 63 1021 10 N/NE 9.3
Oggi h: 09:50 sereno Sereno 18 12 67 1021 10 N/NE 7.4
Oggi h: 09:20 sereno Sereno 16 12 77 1021 10 N 5.5
Oggi h: 08:50 sereno Sereno 15 11 76 1021 10 N 3.7
Oggi h: 08:20 sereno Sereno 13 11 87 1021 10 N 3.7
Oggi h: 07:50 sereno Sereno 12 10 87 1021 10 N 3.7
Oggi h: 07:20 sereno Sereno 11 10 93 1020 10 N 5.5
Oggi h: 06:50 sereno Sereno 11 10 93 1020 10 N 3.7
Oggi h: 06:20 sereno Sereno 11 10 93 1020 10 N 3.7
Oggi h: 05:50 sereno Sereno 11 10 93 1020 10 N 1.8
Oggi h: 05:20 sereno Sereno 11 10 93 1020 10 N 1.8
Oggi h: 04:50 sereno Sereno 12 10 87 1020 10 N 5.5
Oggi h: 04:20 sereno Sereno 12 10 87 1020 10 N 5.5
Oggi h: 03:50 sereno Sereno 12 10 87 1020 10 N 1.8
Oggi h: 03:20 sereno Sereno 13 11 87 1020 10 N 3.7
Oggi h: 02:50 sereno Sereno 13 11 87 1020 10 N 7.4
Oggi h: 02:20 sereno Sereno 13 11 87 1020 10 N 5.5
Oggi h: 01:50 sereno Sereno 13 11 87 1021 10 N 3.7
Oggi h: 01:20 sereno Sereno 14 11 82 1021 10 N 7.4
Oggi h: 00:50 sereno Sereno 13 11 87 1021 10 N 5.5
Oggi h: 00:20 sereno Sereno 13 11 87 1021 10 N 3.7
Ieri h: 23:50 sereno Sereno 14 11 82 1021 10 N 5.5